Weather History for LFLS - February, 2013

Change the Weather History Date:

Sunday, February 17, 2013

  Actual Average Record
Temperature  
Mean Temperature 30 °F -  
Max Temperature 41 °F 49 °F 55 °F (1997)
Min Temperature 19 °F 33 °F 19 °F (2013)
Degree Days  
Heating Degree Days 35    
Moisture  
Dew Point 25 °F    
Average Humidity 85    
Maximum Humidity 100    
Minimum Humidity 61    
Precipitation  
Precipitation 0.00 in - - ()
Sea Level Pressure  
Sea Level Pressure 30.05 in    
Wind  
Wind Speed 4 mph ()    
Max Wind Speed 9 mph    
Max Gust Speed -    
Visibility 2.5 miles    
Events Fog    
Averages and records for this station are not official NWS values.
T = Trace of Precipitation, MM = Missing Value Source: Averaged Metar Reports

Daily Weather History Graph

Daily Weather History Graph

Search for Another Location

Airport or City:

Trip Planner

Search our weather history database for the weather conditions in past years. The results will help you decide how hot, cold, wet, or windy it might be!

Date:

Astronomy

Feb. 17, 2013 Rise Set
Actual Time 7:37 AM CET 6:08 PM CET
Civil Twilight 7:06 AM CET 6:39 PM CET
Nautical Twilight 6:32 AM CET 7:13 PM CET
Astronomical Twilight 5:58 AM CET 7:47 PM CET
Moon 10:56 AM CET (2/17) 1:11 AM CET (2/17)
Length of Visible Light 11h 32m
Length of Day
10h 31m
Waxing Crescent, 46% of the Moon is Illuminated
Feb 17
Waxing Crescent
Feb 17
First Quarter
Feb 25
Full
Mar 4
Last Quarter
Mar 11
New

Hourly Weather History & Observations

Time (CET) Temp. Windchill Dew Point Humidity Pressure Visibility Wind Dir Wind Speed Gust Speed Precip Events Conditions
12:00 AM 23.0 °F - 21.2 °F 93% 30.12 in 1.1 mi East 2.3 mph - N/A   Mist
12:30 AM 23.0 °F 17.0 °F 21.2 °F 93% 30.12 in 0.1 mi East 4.6 mph - N/A Fog Light Freezing Fog
1:00 AM 23.0 °F 15.8 °F 23.0 °F 100% 30.12 in 0.0 mi ESE 5.8 mph - N/A Fog Light Freezing Fog
1:30 AM 24.8 °F 20.5 °F 23.0 °F 93% 30.12 in 0.1 mi East 3.5 mph - N/A Fog Light Freezing Fog
2:00 AM 23.0 °F - 23.0 °F 100% 30.12 in 0.1 mi East 2.3 mph - N/A Fog Light Freezing Fog
2:30 AM 23.0 °F - 23.0 °F 100% 30.09 in 0.1 mi ENE 2.3 mph - N/A Fog Light Freezing Fog
3:00 AM 23.0 °F - 23.0 °F 100% 30.09 in 0.0 mi Calm Calm - N/A Fog Light Freezing Fog
3:30 AM 23.0 °F - 21.2 °F 93% 30.09 in 0.0 mi Calm Calm - N/A Fog Light Freezing Fog
4:00 AM 21.2 °F - 19.4 °F 93% 30.09 in 0.1 mi Calm Calm - N/A Fog Light Freezing Fog
4:30 AM 21.2 °F - 17.6 °F 86% 30.06 in 0.1 mi Calm Calm - N/A Fog Light Freezing Fog
5:00 AM 19.4 °F - 17.6 °F 93% 30.06 in 0.6 mi Calm Calm - N/A Fog Light Freezing Fog
5:30 AM 19.4 °F - 17.6 °F 93% 30.06 in 3.1 mi ESE 2.3 mph - N/A   Partly Cloudy
6:00 AM 19.4 °F 14.3 °F 17.6 °F 93% 30.06 in 5.0 mi ESE 3.5 mph - N/A   Unknown
6:30 AM 19.4 °F 14.3 °F 17.6 °F 93% 30.06 in - ESE 3.5 mph - N/A   Clear
7:00 AM 23.0 °F 18.4 °F 23.0 °F 100% 30.06 in - East 3.5 mph - N/A   Clear
7:30 AM 21.2 °F 14.9 °F 19.4 °F 93% 30.06 in - East 4.6 mph - N/A   Clear
8:00 AM 23.0 °F 18.4 °F 23.0 °F 100% 30.06 in - East 3.5 mph - N/A   Clear
8:30 AM 24.8 °F 20.5 °F 24.8 °F 100% 30.06 in - East 3.5 mph - N/A   Clear
9:00 AM 30.2 °F 21.9 °F 28.4 °F 93% 30.06 in - ENE 9.2 mph - N/A   Clear
9:30 AM 32.0 °F 24.2 °F 28.4 °F 87% 30.06 in - ENE 9.2 mph - N/A   Clear
10:00 AM 32.0 °F 24.2 °F 26.6 °F 80% 30.06 in - ENE 9.2 mph - N/A   Clear
10:30 AM 33.8 °F 27.0 °F 26.6 °F 75% 30.06 in - ENE 8.1 mph - N/A   Clear
11:00 AM 35.6 °F 29.2 °F 26.6 °F 70% 30.06 in - East 8.1 mph - N/A   Clear
11:30 AM 35.6 °F 29.2 °F 28.4 °F 75% 30.06 in - East 8.1 mph - N/A   Clear
12:00 PM 37.4 °F 32.1 °F 28.4 °F 70% 30.06 in - East 6.9 mph - N/A   Clear
12:30 PM 37.4 °F 31.4 °F 28.4 °F 70% 30.04 in - East 8.1 mph - N/A   Clear
1:00 PM 39.2 °F 34.2 °F 28.4 °F 65% 30.04 in - East 6.9 mph - N/A   Clear
1:30 PM 39.2 °F 35.9 °F 30.2 °F 70% 30.04 in - East 4.6 mph - N/A   Clear
2:00 PM 41.0 °F 38.0 °F 28.4 °F 61% 30.04 in - East 4.6 mph - N/A   Clear
2:30 PM 39.2 °F 34.2 °F 28.4 °F 65% 30.01 in - NNE 6.9 mph - N/A   Clear
3:00 PM 39.2 °F 35.9 °F 28.4 °F 65% 30.01 in - NE 4.6 mph - N/A   Clear
3:30 PM 39.2 °F 33.6 °F 30.2 °F 70% 30.01 in - NNE 8.1 mph - N/A   Clear
4:00 PM 39.2 °F 33.6 °F 30.2 °F 70% 30.01 in - North 8.1 mph - N/A   Clear
4:30 PM 39.2 °F 33.0 °F 30.2 °F 70% 30.01 in - North 9.2 mph - N/A   Clear
5:00 PM 39.2 °F 33.6 °F 30.2 °F 70% 30.01 in - NNE 8.1 mph - N/A   Clear
5:30 PM 37.4 °F 31.4 °F 30.2 °F 75% 29.98 in - NNE 8.1 mph - N/A   Clear
6:00 PM 35.6 °F 29.9 °F 30.2 °F 81% 29.98 in 6.2 mi NNE 6.9 mph - N/A   Unknown
6:30 PM 35.6 °F 32.8 °F 28.4 °F 75% 30.01 in 6.2 mi East 3.5 mph - N/A   Unknown
7:00 PM 33.8 °F 29.6 °F 30.2 °F 87% 30.01 in 6.2 mi East 4.6 mph - N/A   Unknown
7:30 PM 33.8 °F - 28.4 °F 81% 30.01 in 6.2 mi Variable 2.3 mph - N/A   Unknown
8:00 PM 32.0 °F - 28.4 °F 87% 30.01 in 4.3 mi NNE 2.3 mph - N/A   Unknown
8:30 PM 30.2 °F - 26.6 °F 86% 30.01 in 5.0 mi Calm Calm - N/A   Unknown
9:00 PM 30.2 °F - 26.6 °F 86% 30.01 in 4.3 mi ESE 1.2 mph - N/A   Unknown
9:30 PM 28.4 °F - 26.6 °F 93% 30.01 in 3.1 mi SSE 2.3 mph - N/A   Mist
10:00 PM 28.4 °F - 24.8 °F 86% 30.01 in 3.1 mi SSE 2.3 mph - N/A   Scattered Clouds
10:30 PM 28.4 °F - 26.6 °F 93% 30.01 in - Variable 1.2 mph - N/A   Scattered Clouds
11:00 PM 28.4 °F - 26.6 °F 93% 30.01 in 3.1 mi Variable 1.2 mph - N/A   Mostly Cloudy
11:30 PM 28.4 °F - 26.6 °F 93% 30.01 in 2.2 mi WSW 1.2 mph - N/A   Overcast